When you browse on this site, cookies collect data to enhance your experience and personalize the content and advertising you see.
Visit our Privacy Policy to learn more. By continuing to use the site, you agree to this use of cookies and data.
EN

Hourly Weather Verhnyaya Boevka

Today, 26 September, Saturday

Time Temperature Precipitation Wind Pressure Humidity
00:00 +14°C° 0 mm 4 mps 744 mmHg 58%
01:00 +14°C° 0 mm 4 mps 744 mmHg 58%
02:00 +13°C° 0 mm 4 mps 744 mmHg 58%
03:00 +13°C° 0 mm 4 mps 744 mmHg 60%
04:00 +13°C° 0 mm 4 mps 744 mmHg 61%
05:00 +12°C° 0 mm 4 mps 744 mmHg 62%
06:00 +13°C° 0 mm 5 mps 744 mmHg 61%
07:00 +14°C° 0 mm 5 mps 744 mmHg 59%
08:00 +15°C° 0 mm 6 mps 744 mmHg 58%
09:00 +17°C° 0 mm 6 mps 744 mmHg 54%
10:00 +20°C° 0 mm 6 mps 744 mmHg 49%
11:00 +22°C° 0 mm 6 mps 745 mmHg 45%
12:00 +22°C° 0 mm 6 mps 744 mmHg 44%
13:00 +23°C° 0 mm 6 mps 744 mmHg 42%
14:00 +23°C° 0 mm 6 mps 744 mmHg 41%
15:00 +22°C° 0 mm 6 mps 744 mmHg 44%
16:00 +21°C° 0 mm 5 mps 744 mmHg 47%
17:00 +19°C° 0 mm 5 mps 744 mmHg 51%
18:00 +19°C° 0 mm 5 mps 744 mmHg 48%
19:00 +17°C° 0 mm 5 mps 744 mmHg 46%
20:00 +16°C° 0 mm 6 mps 744 mmHg 44%
21:00 +16°C° 0 mm 6 mps 744 mmHg 45%
22:00 +16°C° 0 mm 5 mps 744 mmHg 47%
23:00 +15°C° 0 mm 5 mps 744 mmHg 48%

Tomorrow, 27 September, Sunday

Time Temperature Precipitation Wind Pressure Humidity
00:00 +16°C° 0 mm 5 mps 744 mmHg 47%
01:00 +16°C° 0 mm 6 mps 745 mmHg 45%
02:00 +16°C° 0 mm 6 mps 745 mmHg 44%
03:00 +16°C° 0 mm 6 mps 745 mmHg 42%
04:00 +15°C° 0 mm 6 mps 745 mmHg 41%
05:00 +15°C° 0 mm 7 mps 745 mmHg 39%
06:00 +15°C° 0 mm 7 mps 745 mmHg 41%
07:00 +15°C° 0 mm 7 mps 745 mmHg 43%
08:00 +15°C° 0 mm 8 mps 746 mmHg 46%
09:00 +16°C° 0 mm 8 mps 746 mmHg 44%
10:00 +17°C° 0 mm 8 mps 746 mmHg 42%
11:00 +18°C° 0 mm 8 mps 746 mmHg 40%
12:00 +20°C° 0 mm 8 mps 746 mmHg 40%
13:00 +20°C° 0 mm 8 mps 745 mmHg 40%
14:00 +20°C° 0 mm 8 mps 745 mmHg 39%
15:00 +20°C° 0 mm 8 mps 745 mmHg 40%
16:00 +18°C° 0 mm 7 mps 745 mmHg 41%
17:00 +19°C° 0 mm 6 mps 745 mmHg 42%
18:00 +19°C° 0 mm 6 mps 745 mmHg 41%
19:00 +19°C° 0 mm 5 mps 745 mmHg 41%
20:00 +17°C° 0 mm 5 mps 745 mmHg 41%
21:00 +17°C° 0.2 mm 5 mps 746 mmHg 49%
22:00 +16°C° 0.2 mm 5 mps 746 mmHg 57%
23:00 +15°C° 0.2 mm 5 mps 746 mmHg 65%

Day after tomorrow, 28 September, Monday

Time Temperature Precipitation Wind Pressure Humidity
00:00 +14°C° 1.8 mm 6 mps 746 mmHg 73%
01:00 +13°C° 1.8 mm 6 mps 746 mmHg 81%
02:00 +11°C° 1.8 mm 7 mps 746 mmHg 89%
03:00 +11°C° 0.2 mm 7 mps 746 mmHg 87%
04:00 +11°C° 0.2 mm 7 mps 746 mmHg 85%
05:00 +11°C° 0.2 mm 7 mps 746 mmHg 83%
06:00 +12°C° 0.1 mm 7 mps 747 mmHg 79%
07:00 +13°C° 0.1 mm 6 mps 747 mmHg 74%
08:00 +14°C° 0.1 mm 6 mps 747 mmHg 70%
09:00 +15°C° 0 mm 6 mps 747 mmHg 67%
10:00 +17°C° 0 mm 5 mps 748 mmHg 65%
11:00 +19°C° 0 mm 5 mps 748 mmHg 63%
12:00 +20°C° 0 mm 4 mps 748 mmHg 62%
13:00 +20°C° 0 mm 4 mps 748 mmHg 61%
14:00 +21°C° 0 mm 3 mps 748 mmHg 60%
15:00 +20°C° 0 mm 3 mps 748 mmHg 64%
16:00 +19°C° 0 mm 3 mps 748 mmHg 69%
17:00 +18°C° 0 mm 2 mps 748 mmHg 73%
18:00 +17°C° 0 mm 3 mps 749 mmHg 74%
19:00 +16°C° 0 mm 3 mps 749 mmHg 74%
20:00 +14°C° 0 mm 3 mps 749 mmHg 75%
21:00 +14°C° 0 mm 3 mps 749 mmHg 73%
22:00 +14°C° 0 mm 3 mps 749 mmHg 72%
23:00 +13°C° 0 mm 3 mps 749 mmHg 71%

29 September, Tuesday

Time Temperature Precipitation Wind Pressure Humidity
00:00 +13°C° 0 mm 3 mps 748 mmHg 68%
01:00 +13°C° 0 mm 3 mps 748 mmHg 66%
02:00 +13°C° 0 mm 3 mps 748 mmHg 64%
03:00 +13°C° 0 mm 4 mps 748 mmHg 62%
04:00 +12°C° 0 mm 4 mps 748 mmHg 60%
05:00 +12°C° 0 mm 4 mps 748 mmHg 58%
06:00 +13°C° 0 mm 5 mps 747 mmHg 57%
07:00 +13°C° 0 mm 5 mps 747 mmHg 56%
08:00 +14°C° 0 mm 6 mps 747 mmHg 56%
09:00 +15°C° 0 mm 6 mps 747 mmHg 54%
10:00 +16°C° 0 mm 7 mps 747 mmHg 53%
11:00 +17°C° 0 mm 7 mps 746 mmHg 52%
12:00 +16°C° 0.1 mm 7 mps 746 mmHg 56%
13:00 +16°C° 0.1 mm 7 mps 746 mmHg 61%
14:00 +15°C° 0.1 mm 7 mps 746 mmHg 65%
15:00 +14°C° 0.4 mm 7 mps 746 mmHg 67%
16:00 +14°C° 0.4 mm 7 mps 746 mmHg 68%
17:00 +12°C° 0.4 mm 7 mps 746 mmHg 70%
18:00 +12°C° 0.3 mm 7 mps 745 mmHg 73%
19:00 +11°C° 0.3 mm 7 mps 745 mmHg 76%
20:00 +11°C° 0.3 mm 7 mps 745 mmHg 78%
21:00 +11°C° 0 mm 7 mps 745 mmHg 77%
22:00 +11°C° 0 mm 8 mps 744 mmHg 75%
23:00 +11°C° 0 mm 8 mps 744 mmHg 74%

30 September, Wednesday

Time Temperature Precipitation Wind Pressure Humidity
00:00 +12°C° 0 mm 8 mps 743 mmHg 66%
01:00 +12°C° 0 mm 8 mps 743 mmHg 59%
02:00 +12°C° 0 mm 7 mps 743 mmHg 52%
03:00 +12°C° 0 mm 7 mps 743 mmHg 50%
04:00 +12°C° 0 mm 8 mps 743 mmHg 47%
05:00 +12°C° 0 mm 8 mps 742 mmHg 45%
06:00 +12°C° 0 mm 8 mps 742 mmHg 46%
07:00 +13°C° 0 mm 9 mps 743 mmHg 47%
08:00 +13°C° 0 mm 9 mps 743 mmHg 49%
09:00 +13°C° 0 mm 8 mps 743 mmHg 49%
10:00 +13°C° 0 mm 8 mps 743 mmHg 50%
11:00 +14°C° 0 mm 7 mps 743 mmHg 51%
12:00 +14°C° 0.1 mm 6 mps 744 mmHg 53%
13:00 +14°C° 0.1 mm 6 mps 744 mmHg 54%
14:00 +15°C° 0.1 mm 5 mps 744 mmHg 55%
15:00 +14°C° 0.3 mm 5 mps 744 mmHg 61%
16:00 +13°C° 0.3 mm 4 mps 744 mmHg 67%
17:00 +13°C° 0.3 mm 3 mps 744 mmHg 72%
18:00 +13°C° 0 mm 3 mps 744 mmHg 73%
19:00 +12°C° 0 mm 3 mps 744 mmHg 74%
20:00 +12°C° 0 mm 4 mps 744 mmHg 74%
21:00 +12°C° 0 mm 4 mps 744 mmHg 75%
22:00 +12°C° 0 mm 3 mps 744 mmHg 75%
23:00 +12°C° 0 mm 3 mps 744 mmHg 75%

1 October, Thursday

Time Temperature Precipitation Wind Pressure Humidity
00:00 +12°C° 0.2 mm 4 mps 744 mmHg 71%
01:00 +12°C° 0.2 mm 4 mps 744 mmHg 66%
02:00 +12°C° 0.2 mm 5 mps 744 mmHg 61%
03:00 +13°C° 0.1 mm 5 mps 744 mmHg 62%
04:00 +13°C° 0.1 mm 5 mps 745 mmHg 62%
05:00 +13°C° 0.1 mm 5 mps 745 mmHg 63%
06:00 +13°C° 0.1 mm 6 mps 745 mmHg 67%
07:00 +11°C° 0.1 mm 6 mps 745 mmHg 71%
08:00 +11°C° 0.1 mm 7 mps 745 mmHg 75%
09:00 +12°C° 0.1 mm 7 mps 746 mmHg 68%
10:00 +14°C° 0.1 mm 7 mps 746 mmHg 62%
11:00 +14°C° 0.1 mm 7 mps 746 mmHg 55%
12:00 +15°C° 0 mm 6 mps 746 mmHg 52%
13:00 +16°C° 0 mm 6 mps 746 mmHg 49%
14:00 +16°C° 0 mm 6 mps 746 mmHg 46%
15:00 +16°C° 0 mm 5 mps 747 mmHg 47%
16:00 +15°C° 0 mm 5 mps 747 mmHg 47%
17:00 +15°C° 0 mm 5 mps 747 mmHg 47%
18:00 +14°C° 0 mm 5 mps 747 mmHg 46%
19:00 +14°C° 0 mm 6 mps 747 mmHg 44%
20:00 +14°C° 0 mm 6 mps 747 mmHg 42%
21:00 +14°C° 0.1 mm 6 mps 747 mmHg 47%
22:00 +14°C° 0.1 mm 5 mps 748 mmHg 52%
23:00 +14°C° 0.1 mm 5 mps 748 mmHg 57%
Show more